Location: Dötzum
(52.0808°N, 9.8063°E)
Time: 06:01:13
(UTC+00:00)

NOSS 3-4 (A) - Pass Details

Date: 27 May 2022
Orbit: 837 x 1375 km, 63.4° (Epoch: 14 June)

Event Time Altitude Azimuth Distance (km) Brightness Sun altitude
Rises 02:16:08 0° 312° (NW) 3,697 6.6 -7.0°
Reaches altitude 10° 02:18:36 10° 315° (NW) 2,815 6.0 -6.7°
Maximum altitude 02:25:18 72° 40° (NE) 1,180 4.2 -6.1°
Drops below altitude 10° 02:32:59 10° 125° (SE) 3,200 6.3 -5.2°
Sets 02:35:56 0° 127° (SE) 4,233 6.9 -4.9°
